Location: Gu�tanj
(46.5431°N, 14.9692°E)
Time: 18:37:35
(UTC+00:00)

OBJECT-B - Pass Details

Date: 03 March 2021
Orbit: 414 x 427 km, 97.0° (Epoch: 11 April)

Event Time Altitude Azimuth Distance (km) Brightness Sun altitude
Exits shadow 18:05:12 20° 54° (NE) 1,056 2.3 -13.9°
Drops below altitude 10° 18:07:08 10° 18° (NNE) 1,514 3.4 -14.2°
Sets 18:09:28 0° 2° (N) 2,382 4.6 -14.6°
